Regional Weather Roundup
Issued by NWS

Home | Current Version | Previous Version | Graphics & Text | Print | Product List | Glossary Off
Versions: 1 2 3 4 5 6 7 8 9 10 11 12 13 14 15 16 17 18 19 20 21 22 23 24 25 26 27 28 29 30 31 32 33 34 35 36 37 38 39 40 41 42 43 44 45 46 47 48 49 50

000
ASUS43 KDTX 270110
RWRMI
MICHIGAN HOURLY REGIONAL WEATHER ROUNDUP
NATIONAL WEATHER SERVICE DETROIT/PONTIAC MI
800 PM EST WED NOV 26 2014

NOTE: "FAIR" INDICATES FEW OR NO CLOUDS BELOW 12,000 FEET WITH NO
SIGNIFICANT WEATHER AND/OR OBSTRUCTION TO VISIBILITY.

MIZ047>049-052>055-059>063-066>070-074>076-081>083-270200-
SOUTHEAST LOWER MICHIGAN

CITY           SKY/WX    TMP DP  RH WIND       PRES   REMARKS
ADRIAN         CLOUDY    30  24  78 N8        30.08S WCI  22
ALMA           CLOUDY    29  24  83 NW3       30.12S
ANN ARBOR      CLOUDY    31  24  75 N7        30.07F WCI  24
BAD AXE        CLOUDY    29  28  93 N7        30.11S WCI  22
CARO           CLOUDY    30  25  80 VRB3      30.10F
DETROIT CITY   CLOUDY    35  23  61 N7        30.08F WCI  29
DETROIT        CLOUDY    33  24  69 N5        30.09R WCI  29
FLINT          CLOUDY    31  24  75 N15       30.09F WCI  20
GROSSE ILE     CLOUDY    34  27  75 N8        30.06S WCI  27
HILLSDALE      CLOUDY    29  24  82 CALM      30.06R
HOWELL         CLOUDY    29  23  78 N3        30.08S

CITY           SKY/WX    TMP DP  RH WIND       PRES   REMARKS
JACKSON        CLOUDY    28  23  81 N5        30.07F WCI  23
LAMBERTVILLE   CLOUDY    32  27  80 CALM      30.08S
LANSING        CLOUDY    29  21  72 N7        30.10F WCI  22
LAPEER         CLOUDY    29  24  80 N5        30.09F WCI  24
MASON          CLOUDY    29  24  79 N6        30.08F WCI  23
MONROE         CLOUDY    32  27  80 CALM      30.06S
MT. CLEMENS    CLOUDY    32  26  79 N10       30.06F WCI  23
PONTIAC        FLURRIES  30  22  72 N8        30.06F WCI  22
PORT HOPE        N/A     31  28  89 W7        30.09F WCI  24
PORT HURON     CLOUDY    30  25  80 NW6       30.09S WCI  24
TRI CITIES     CLOUDY    30  23  75 N9        30.12F WCI  22
TROY           CLOUDY    34  24  67 N5        30.09S WCI  30
SAGINAW HB     CLOUDY    30  27  86 N8        30.11F WCI  23
$$
MIZ043>046-050>051-056>058-064>065-071>073-077>080-270200-
SOUTHWEST LOWER MICHIGAN

CITY           SKY/WX    TMP DP  RH WIND       PRES   REMARKS
BATTLE CREEK   CLOUDY    29  22  75 N3        30.09S
BENTON HARBOR  CLOUDY    24  21  88 CALM      30.12S
BIG RAPIDS     CLOUDY    28  26  91 CALM      30.11S
COLDWATER      CLOUDY    30  25  83 N5        30.08S WCI  25
FREMONT        CLOUDY    28  23  81 CALM      30.12S
HOLLAND        CLOUDY    30  22  72 CALM      30.13S
GRAND RAPIDS   CLOUDY    29  21  72 N5        30.11F WCI  24
IONIA          CLOUDY    30  23  76 N5        30.10S WCI  25
KALAMAZOO      CLOUDY    29  21  72 N7        30.10S WCI  22
LUDINGTON      CLOUDY    29  28  94 CALM      30.14S FOG
MARSHALL       CLOUDY    27  24  86 CALM      30.08S
MOUNT PLEASANT CLOUDY    29  24  81 CALM      30.11S
MUSKEGON       CLOUDY    30  23  75 NE3       30.14S
SOUTH HAVEN    CLOUDY    28  25  87 CALM      30.12S
$$
MIZ016>042-270200-
NORTHERN LOWER MICHIGAN

CITY           SKY/WX    TMP DP  RH WIND       PRES   REMARKS
ALPENA         CLOUDY    26  22  84 NW5       30.13F WCI  20
BEAVER ISLAND  MOCLDY    29  24  80 W5        30.13F WCI  24
BELLAIRE       CLOUDY    27  25  93 CALM      30.14S
CADILLAC       CLOUDY    24  23  95 CALM      30.09S
CHARLEVOIX     MOCLDY    27  24  89 CALM      30.16S
FRANKFORT      MOCLDY    28  27  93 CALM      30.14S
GAYLORD        CLOUDY    23  20  88 CALM      30.09F
GRAYLING       CLOUDY    24  24  96 CALM      30.11S
HARBOR SPRINGS CLOUDY    27  20  76 CALM      30.13F
HOUGHTON LAKE  CLOUDY    25  22  88 CALM      30.10F
MANISTEE       CLOUDY    28  25  86 CALM      30.14S
OSCODA         FLURRIES  27  25  91 NW6       30.12F WCI  20
PELLSTON       CLOUDY    26  23  88 CALM      30.14S
ROGERS CITY    CLOUDY    26  24  95 CALM      30.15S
TRAVERSE CITY  FLURRIES  29  24  82 CALM      30.13S
$$
MIZ007>008-015-270200-
EASTERN UPPER MICHIGAN

CITY           SKY/WX    TMP DP  RH WIND       PRES   REMARKS
KINROSS        CLOUDY    25  25 100 E3        30.13F
MACKINAC ISLAN CLOUDY    28  21  75 W3        30.12F
NEWBERRY       CLOUDY    22  21  98 CALM      30.12F
S. S. MARIE    CLOUDY    26  22  84 VRB3      30.13F
MUNISING         N/A     24  17  74 SE3       30.14F
$$
MIZ004>006-011>014-085-270200-
CENTRAL UPPER MICHIGAN

CITY           SKY/WX    TMP DP  RH WIND       PRES   REMARKS
MANISTIQUE     CLOUDY    19  18  95 W5        30.14S WCI  12
ESCANABA       CLOUDY    21  16  79 W3        30.15S
MENOMINEE      CLOUDY    21  16  79 NW3       30.16S
SAWYER-GWINN   LGT SNOW  21  18  86 NW3       30.11
$$
MIZ001>003-009>011-084-270200-
WESTERN UPPER MICHIGAN

CITY           SKY/WX    TMP DP  RH WIND       PRES   REMARKS
IRON MOUNTAIN  CLOUDY    23  18  81 NW6       30.12F WCI  16
HOUGHTON       LGT SNOW  19  13  77 N15G23    30.18S WCI   5
COPPER HARBOR    N/A     24  19  81 NE20G30   30.21R WCI  10
IRONWOOD       CLOUDY    21  18  86 N6        30.19R WCI  14
$$

ABBREVIATIONS USED IN REMARKS
   TC - TEMPERATURE IN CELSIUS
  WCI - WIND CHILL INDEX
   HX - HEAT INDEX
  VSB - VISIBILITY



USA.gov is the U.S. government's official web portal to all federal, state and local government web resources and services.